This demonstration page uses our WeatherBlox Daily Observations layout. Learn more.

Left ArrowRight Arrow

39.12711, -84.51439

Hourly Observations for August 28, 2017

Temp ( °F °C ) Dew Point ( °F °C ) Humidity (%) Winds ( mph kmh ) Pressure ( in mb ) Visibility ( mi km ) Precip ( " mm )
12:53 am 00:53 Clear 62 16.7 61 16.1 96 96 Calm 30.04 1017 10 16 0.00 0.00
1:53 am 01:53 Clear 61 16.1 61 16.1 100 100 Calm 30.03 1017 10 16 0.00 0.00
2:53 am 02:53 Clear 60 15.6 60 15.6 100 100 Calm 30.01 1016 8 13 0.00 0.00
3:53 am 03:53 Clear 59 15 59 15 100 100 Calm 30.00 1016 8 13 0.00 0.00
4:53 am 04:53 Clear with Mist and Fog 60 15.6 60 15.6 100 100 Calm 30.00 1016 5 8 0.00 0.00
5:53 am 05:53 Mostly Cloudy 61 16.1 61 16.1 100 100 Calm 30.02 1017 8 13 0.00 0.00
6:53 am 06:53 Mostly Clear 62 16.7 62 16.7 100 100 N 3 6 30.04 1017 10 16 0.00 0.03
7:53 am 07:53 Sunny 63 17.2 62 16.7 97 97 ENE 3 6 30.03 1017 8 13 0.00 0.00
8:53 am 08:53 Partly Cloudy 66 18.9 64 17.8 93 93 NE 5 7 30.05 1018 7 11 0.00 0.00
9:53 am 09:53 Sunny 67 19.4 64 17.8 91 91 NE 5 7 30.04 1017 7 11 0.00 0.00
10:53 am 10:53 Sunny 71 21.7 66 18.9 84 84 ENE 3 6 30.05 1018 9 14 0.00 0.00
11:53 am 11:53 Sunny 74 23.3 67 19.4 79 79 VRB 3 6 30.04 1017 10 16 0.00 0.00
12:53 pm 12:53 Partly Cloudy 75 23.9 68 20 79 79 SSW 6 9 30.04 1017 10 16 0.00 0.00
12:59 pm 12:59 Partly Cloudy 74 23.3 68 20 82 82 S 7 11 30.03 1017 10 16 0.00 0.00
1:53 pm 13:53 Mostly Cloudy 74 23.3 69 20.6 85 85 VRB 3 6 30.04 1017 10 16 0.00 0.03
2:53 pm 14:53 Mostly Sunny 77 25 69 20.6 77 77 Calm 30.03 1017 10 16 0.00 0.00
3:53 pm 15:53 Mostly Cloudy 77 25 69 20.6 77 77 Calm 30.01 1016 10 16 0.00 0.00
4:53 pm 16:53 Partly Cloudy with Nearby Thunderstorms 76 24.4 69 20.6 79 79 S 7 11 30.01 1016 10 16 0.00 0.00
5:29 pm 17:29 Sunny 74 23.3 66 18.9 76 76 SSE 10 17 30.00 1016 10 16 0.00 0.00
5:51 pm 17:51 Partly Cloudy with Nearby Thunderstorms 73 23 66 19 78 78 SE 12 19 30.00 1016 10 16 0.00 0.00
5:53 pm 17:53 Partly Cloudy with Nearby Thunderstorms 74 23.3 66 18.9 76 76 SSE 10 17 30.02 1017 10 16 0.00 0.00
6:06 pm 18:06 Mostly Cloudy 74 23.3 66 18.9 76 76 SE 10 17 30.00 1016 10 16 0.00 0.00
6:53 pm 18:53 Sunny 73 22.8 66 18.9 79 79 SE 8 13 30.02 1017 10 16 0.00 0.00
7:53 pm 19:53 Sunny 71 21.7 66 18.9 84 84 SSE 8 13 30.02 1017 10 16 0.00 0.00
8:53 pm 20:53 Mostly Cloudy 68 20 66 18.9 93 93 S 3 6 30.02 1017 10 16 0.00 0.00
9:53 pm 21:53 Clear 68 20 66 18.9 93 93 Calm 30.04 1017 10 16 0.00 0.00
10:53 pm 22:53 Mostly Cloudy 68 20 65 18.3 90 90 Calm 30.04 1017 10 16 0.00 0.00
11:53 pm 23:53 Mostly Cloudy 65 18.3 65 18.3 100 100 Calm 30.04 1017 10 16 0.00 0.00

Powered by AerisWeather